THORAD AGENA D DEB, 4157

Orbit data source: Space-Track

THORAD AGENA D DEB, 4157 is space debris in LEO originally from a launch on Tue, 30 Sep 1969 UTC launched from the Air Force Western Test Range (AFWTR). Debris objects in space refer to the collection of defunct objects orbiting the Earth. Examples of debris include non-operational satellites, rocket bodies, and fragments generated from explosions, collisions, or faulty payload assembly.

Loading next visibility...
Identifier
4157, 1969-082Z
Orbit
LEO
Country
Flag of USUS
Related business
Manufacturer
Unknown
Mission
Spacecraft
Bus & Motor
Unknown
Mass
Unknown
Launch date (UTC)
1969-09-30 (57 years ago)
Launch vehicle
Unknown
Launch site
Air Force Western Test Range (AFWTR)
Object type
Payload
Rocket body
Debris
Shape & HBR
Unknown shape, 0.2 m
Radar Cross Section
Medium (>0.1 m² and <1 m²)

Expand to show TLE details & history
Last TLE update: 3 days ago

TLE from 3 days ago
0 THORAD AGENA D DEB
1  4157U 69082Z   26171.31613140  .00017958  00000-0  94249-3 0  9999
2  4157  70.0031 130.7434 0014754  45.2648 314.9718 15.15673739994936
Epoch: 2026-06-20T07:35Z
TLE epoch observation values (Epoch: 2026-06-20T07:35:13.752Z)
Latitude
-0.00006°
Longitude
108.40357°
Altitude
514.191 km
Speed
7.611 km/s
True Right ascension
08h 42m 58s
True Declination
0° 00' 00"
Sunlit
Object was in daylight at epoch
Visualization orbit readout
Latitude
Unknown
Longitude
Unknown
Altitude
Unknown
Speed
Unknown
Apparent Right ascension
Unknown
Apparent Declination
Unknown
Sunlit
N/A
Visualization observer readout
Local Sidereal Time
08:39:09
Azimuth
Unknown
Elevation
Unknown
Doppler factor
Unknown
Orbital elements
Apogee altitude
527.039 km
Perigee altitude
506.693 km
Semi-major axis
6,895.003 km
Eccentricity
0.00148
Inclination
70.0031°
RAAN
130.7434°
Arg. of periapsis
45.2648°
True anomaly
314.85204°
Mean anomaly
314.9718°
Eccentric anomaly
314.91193°
Mean motion
3.79089 °/min
Orbital period
94.96 mins
BSTAR
0.00094249

Documentation

Showing up to 5 results
|